CAPE
12 12 16 12 11 15 18 19 22 19 17 14 11 10 6 10 14 6 12 6 7 1 10 5 2 0 6 18 22 5 8 4 0 82 70 0 1 9 23 17 56 91 23 72 3 0 0
19 16 16 22 19 22 8 18 13 16 14 9 6 6 5 9 6 7 6 4 0 4 0 7 12 0 48 15 41 27 21 10 4 36 36 5 3 8 22 12 11 81 76 13 0 0 0
16 19 14 15 12 15 12 9 14 12 11 5 3 2 3 7 8 4 0 0 0 0 0 23 38 21 16 17 53 56 21 31 6 34 2 0 0 10 0 27 3 43 144 5 0 0 0
15 15 14 14 16 14 14 17 13 10 8 4 1 1 2 5 1 0 0 0 0 0 17 33 73 57 22 33 28 14 28 39 12 13 0 0 1 6 2 0 29 19 41 3 0 0 0
11 13 13 13 14 16 8 8 10 8 6 2 0 2 2 1 0 0 0 0 0 8 49 83 20 21 17 26 26 32 26 38 29 25 49 22 0 3 0 10 121 35 18 16 0 0 4
9 9 7 9 10 13 17 14 8 4 3 1 0 0 0 0 0 0 0 0 9 19 7 0 0 4 0 1 8 36 40 26 31 50 44 12 2 4 3 5 124 71 22 26 0 0 0
6 5 5 7 7 10 15 11 6 2 1 0 0 0 0 0 0 0 0 0 0 0 2 21 27 11 2 2 10 34 12 30 7 12 25 12 11 5 10 4 1 35 31 20 5 0 0
4 3 3 4 7 9 11 11 6 1 0 0 0 0 0 0 0 0 0 0 0 0 3 7 6 9 3 3 3 11 16 15 7 25 31 30 80 9 1 3 1 62 22 49 3 0 14
3 2 2 2 2 7 8 8 6 2 0 0 0 0 0 0 0 0 0 0 0 0 1 10 10 9 7 5 6 4 13 7 1 17 42 22 8 1 5 2 5 11 25 32 0 0 51
4 3 2 1 0 1 4 5 5 2 0 0 0 0 0 0 0 0 0 0 0 0 17 7 22 8 1 3 7 8 9 3 3 16 0 1 2 8 1 1 3 1 42 0 0 21 101
0 0 1 1 0 0 1 3 4 2 0 0 0 0 0 0 0 0 0 0 0 0 19 1 2 0 0 9 5 6 9 8 39 2 0 1 0 0 3 7 34 2 25 0 24 48 111
0 0 0 0 0 1 0 2 2 3 0 0 0 0 0 0 0 0 0 0 0 14 9 0 0 0 3 6 4 6 1 0 0 0 5 0 0 0 4 0 0 0 0 4 96 188 102
0 0 0 0 0 1 3 0 1 1 0 0 0 0 0 0 0 0 0 0 4 8 0 0 0 0 2 4 3 1 2 1 4 45 70 0 0 0 0 0 0 0 20 57 68 51 54
0 0 0 0 0 0 0 1 0 0 0 0 0 0 0 0 0 0 0 0 0 0 0 0 0 0 0 0 0 0 1 6 1 0 7 2 2 0 0 0 0 0 0 0 7 3 1
0 0 0 0 0 0 0 0 0 0 0 0 0 0 0 0 0 0 0 0 0 0 0 0 0 0 0 0 0 0 0 3 6 3 0 2 1 0 0 0 0 0 0 0 0 0 7
0 0 0 0 0 0 0 0 1 0 0 0 0 0 0 0 0 0 0 0 0 0 0 0 0 0 1 0 0 3 0 0 2 0 2 0 0 0 0 0 0 0 0 0 0 0 0
0 0 0 0 0 0 0 0 0 0 0 0 0 0 0 0 0 0 0 0 0 0 0 0 0 0 0 0 1 0 1 0 0 0 0 0 0 0 0 0 0 0 0 0 0 0 0
0 0 0 0 0 0 0 0 0 0 0 0 0 0 0 0 0 0 0 0 0 0 0 0 0 0 0 0 3 0 0 0 0 0 1 0 0 0 0 0 0 0 0 0 0 0 0
1 0 0 0 0 0 0 0 0 0 0 0 0 0 0 0 0 0 0 0 0 0 0 0 0 0 0 0 0 0 0 0 0 1 2 0 0 0 0 0 0 0 0 0 0 0 0
1 0 0 0 0 0 0 0 0 0 0 0 0 0 0 0 0 0 0 0 0 0 0 0 0 0 0 0 0 0 0 0 0 0 0 0 0 0 0 0 0 0 0 0 0 0 0
4 1 0 0 0 0 0 0 0 0 0 0 0 0 0 2 0 0 0 0 0 0 0 0 0 0 0 0 0 0 0 0 0 0 0 0 1 0 0 0 0 0 0 0 0 0 0
8 6 2 0 0 0 0 0 0 0 0 0 0 0 0 0 0 0 0 0 0 0 0 0 0 0 0 0 0 0 0 0 0 0 0 0 0 0 0 0 0 0 0 0 0 0 0
16 10 8 3 0 0 0 0 0 0 0 0 0 0 0 0 0 0 1 0 0 0 0 0 0 0 0 0 0 0 0 0 0 0 1 1 0 1 1 0 0 0 0 0 0 0 0
27 20 14 11 3 0 0 0 0 0 0 0 0 0 0 1 0 0 0 0 0 0 0 0 0 0 0 0 0 0 0 0 0 0 0 2 1 0 1 1 7 0 0 0 0 0 0
36 19 18 14 9 5 0 0 0 0 0 0 0 0 0 1 0 0 0 0 0 0 0 0 0 0 0 0 1 0 0 0 0 0 1 1 3 3 11 5 0 0 0 0 0 0 0
29 39 36 27 23 15 2 0 0 0 0 0 0 0 0 0 0 0 0 0 0 0 0 0 0 0 0 0 1 0 0 0 0 0 0 1 0 3 4 3 0 0 0 0 0 0 0
42 47 39 28 21 19 12 5 0 0 0 0 0 0 0 0 0 0 0 0 0 0 0 0 0 0 0 1 0 0 0 0 0 0 1 2 3 3 9 2 0 0 0 0 0 0 0
26 28 31 39 31 28 22 17 4 2 0 0 0 0 0 0 0 0 0 0 0 0 0 0 0 0 0 0 0 0 0 0 0 0 0 0 0 1 4 2 0 0 0 0 0 0 0
24 23 22 22 25 25 38 37 18 8 6 0 0 0 0 0 0 0 0 0 0 0 0 0 0 0 0 0 0 0 0 0 0 0 0 0 0 0 0 0 0 0 0 0 0 0 0
CIN
-0 -0 -0 -0 -0 -0 -0 -0 -0 -0 -0 -0 -0 -0 -0 -0 -0 -1 -1 -0 -1 -0 -0 -76 -75 -0 -7 -0 -0 -3 -0 -1 -0 -0 -0 -0 -0 -0 -4 -0 -1 -0 -1 -11 -25 -0 -0
-0 -0 -0 -0 -0 -0 -0 -0 -0 -0 -0 -0 -0 -0 -0 -0 -0 -0 -0 -0 -0 -0 -0 -70 -87 -0 -18 -0 -1 -0 -2 -0 -5 -0 -7 -2 -0 -0 -0 -0 -5 -0 -3 -14 -0 -0 -0
-0 -0 -0 -0 -0 -0 -0 -0 -0 -0 -0 -0 -0 -0 -0 -0 -0 -0 -0 -0 -0 -0 -0 -44 -46 -50 -0 -0 -0 -0 -0 -0 -5 -14 -0 -0 -0 -0 -0 -2 -15 -28 -0 -12 -0 -0 -0
-0 -0 -0 -0 -0 -0 -0 -0 -0 -0 -0 -0 -0 -0 -0 -0 -0 -0 -0 -0 -0 -0 -34 -39 -25 -34 -0 -8 -1 -1 -0 -0 -1 -0 -0 -1 -0 -1 -0 -0 -0 -0 -6 -3 -0 -0 -2
-0 -0 -0 -0 -0 -0 -0 -0 -0 -0 -0 -0 -0 -0 -0 -0 -0 -0 -0 -0 -0 -10 -12 -8 -21 -22 -0 -12 -0 -9 -0 -0 -0 -0 -0 -0 -0 -0 -0 -5 -0 -1 -0 -1 -0 -0 -42
-0 -0 -0 -0 -0 -0 -0 -0 -0 -0 -0 -0 -0 -0 -0 -0 -0 -0 -0 -0 -6 -6 -5 -0 -0 -0 -0 -0 -0 -0 -1 -0 -0 -0 -0 -0 -0 -0 -0 -0 -0 -4 -17 -0 -0 -0 -0
-0 -0 -0 -0 -0 -0 -0 -0 -0 -0 -0 -0 -0 -0 -0 -0 -0 -0 -0 -0 -0 -0 -0 -0 -0 -0 -0 -0 -0 -0 -0 -0 -0 -3 -0 -0 -0 -0 -0 -0 -0 -32 -4 -0 -0 -0 -0
-0 -0 -0 -0 -0 -0 -0 -0 -0 -0 -0 -0 -0 -0 -0 -0 -0 -0 -0 -0 -0 -0 -0 -0 -0 -0 -0 -0 -0 -0 -0 -0 -0 -0 -0 -0 -7 -0 -0 -0 -0 -5 -0 -1 -0 -0 -24
-0 -0 -0 -0 -0 -0 -0 -0 -0 -0 -0 -0 -0 -0 -0 -0 -0 -0 -0 -0 -0 -0 -0 -0 -0 -0 -0 -0 -0 -0 -0 -0 -0 -0 -0 -8 -0 -0 -0 -0 -0 -66 -1 -1 -0 -0 -7
-0 -0 -0 -0 -0 -0 -0 -0 -0 -0 -0 -0 -0 -0 -0 -0 -0 -0 -0 -0 -0 -0 -0 -0 -0 -0 -0 -0 -0 -0 -0 -0 -0 -1 -0 -0 -0 -0 -0 -0 -13 -2 -1 -0 -0 -17 -0
-0 -0 -0 -0 -0 -0 -0 -0 -0 -0 -0 -0 -0 -0 -0 -0 -0 -0 -0 -0 -0 -0 -0 -0 -0 -0 -0 -0 -0 -0 -0 -0 -73 -0 -0 -0 -0 -0 -0 -18 -6 -1 -3 -0 -62 -26 -0
-0 -0 -0 -0 -0 -0 -0 -0 -0 -0 -0 -0 -0 -0 -0 -0 -0 -0 -0 -0 -0 -0 -0 -0 -0 -0 -0 -0 -0 -0 -0 -0 -0 -0 -159 -0 -0 -0 -0 -3 -0 -0 -0 -2 -9 -4 -5
-0 -0 -0 -0 -0 -0 -0 -0 -0 -0 -0 -0 -0 -0 -0 -0 -0 -0 -0 -0 -0 -0 -0 -0 -0 -0 -0 -0 -0 -0 -0 -0 -0 -63 -153 -0 -0 -0 -0 -0 -0 -0 -2 -2 -8 -32 -5
-0 -0 -0 -0 -0 -0 -0 -0 -0 -0 -0 -0 -0 -0 -0 -0 -0 -0 -0 -0 -0 -0 -0 -0 -0 -0 -0 -0 -0 -0 -0 -0 -0 -0 -0 -0 -0 -0 -0 -0 -0 -0 -0 -0 -23 -48 -64
-0 -0 -0 -0 -0 -0 -0 -0 -0 -0 -0 -0 -0 -0 -0 -0 -0 -0 -0 -0 -0 -0 -0 -0 -0 -1 -0 -0 -0 -0 -0 -0 -0 -0 -0 -1 -0 -0 -0 -0 -0 -0 -0 -0 -0 -0 -3
-0 -0 -0 -0 -0 -0 -0 -0 -0 -0 -0 -0 -0 -0 -0 -0 -0 -0 -0 -0 -0 -0 -0 -0 -0 -0 -0 -0 -0 -0 -0 -0 -0 -0 -0 -0 -0 -0 -0 -0 -0 -0 -0 -0 -0 -2 -0
-0 -0 -0 -0 -0 -0 -0 -0 -0 -0 -0 -0 -0 -0 -0 -0 -0 -0 -0 -0 -0 -0 -0 -0 -0 -0 -0 -0 -0 -0 -0 -0 -0 -0 -0 -0 -0 -0 -0 -0 -0 -0 -0 -0 -0 -0 -0
-0 -0 -0 -0 -0 -0 -0 -0 -0 -0 -0 -0 -0 -0 -0 -0 -0 -0 -0 -0 -0 -0 -0 -0 -0 -0 -0 -0 -0 -0 -0 -0 -0 -0 -0 -0 -0 -0 -0 -0 -0 -0 -0 -0 -0 -0 -0
-0 -0 -0 -0 -0 -0 -0 -0 -0 -0 -0 -0 -0 -0 -0 -0 -0 -0 -0 -0 -0 -0 -0 -0 -0 -0 -0 -0 -0 -0 -0 -0 -0 -0 -0 -0 -0 -0 -0 -0 -0 -0 -0 -0 -0 -0 -0
-0 -0 -0 -0 -0 -0 -0 -0 -0 -0 -0 -0 -0 -0 -0 -0 -0 -0 -0 -0 -0 -0 -0 -0 -0 -0 -0 -0 -0 -0 -0 -0 -0 -0 -0 -0 -0 -0 -0 -0 -0 -0 -0 -0 -0 -0 -0
-0 -0 -0 -0 -0 -0 -0 -0 -0 -0 -0 -0 -0 -0 -0 -0 -0 -0 -0 -0 -0 -0 -0 -0 -0 -0 -0 -0 -0 -0 -0 -0 -0 -0 -0 -0 -0 -0 -0 -0 -0 -0 -0 -0 -0 -0 -0
-0 -0 -0 -0 -0 -0 -0 -0 -0 -0 -0 -0 -0 -0 -0 -0 -0 -0 -0 -0 -0 -0 -0 -0 -0 -0 -0 -0 -0 -0 -0 -0 -0 -0 -0 -0 -0 -0 -0 -0 -0 -0 -0 -0 -0 -0 -0
-0 -0 -0 -0 -0 -0 -0 -0 -0 -0 -0 -0 -0 -0 -0 -0 -0 -0 -0 -0 -0 -0 -0 -0 -0 -0 -0 -0 -0 -0 -0 -0 -0 -0 -0 -0 -0 -0 -0 -0 -0 -0 -0 -0 -0 -0 -0
-0 -1 -0 -0 -0 -0 -0 -0 -0 -0 -0 -0 -0 -0 -0 -0 -0 -0 -0 -0 -0 -0 -0 -0 -0 -0 -0 -0 -0 -0 -0 -0 -0 -0 -0 -0 -0 -0 -0 -0 -0 -0 -0 -0 -0 -0 -0
-0 -1 -1 -1 -0 -0 -0 -0 -0 -0 -0 -0 -0 -0 -0 -0 -0 -0 -0 -0 -0 -0 -0 -0 -0 -0 -0 -0 -0 -0 -0 -0 -0 -0 -0 -0 -0 -0 -0 -0 -0 -0 -0 -0 -0 -0 -0
-0 -0 -0 -0 -1 -0 -0 -0 -0 -0 -0 -0 -0 -0 -0 -0 -0 -0 -0 -0 -0 -0 -0 -0 -0 -0 -0 -0 -0 -0 -0 -0 -0 -0 -0 -0 -0 -0 -0 -0 -0 -0 -0 -0 -0 -0 -0
-0 -0 -0 -0 -0 -1 -1 -0 -0 -0 -0 -0 -0 -0 -0 -0 -0 -0 -0 -0 -0 -0 -0 -0 -0 -0 -0 -0 -0 -0 -0 -0 -0 -0 -0 -0 -0 -0 -0 -0 -0 -0 -0 -0 -0 -0 -0
-0 -5 -0 -0 -0 -0 -1 -0 -0 -0 -0 -0 -0 -0 -0 -0 -0 -0 -0 -0 -0 -0 -0 -0 -0 -0 -0 -0 -0 -0 -0 -0 -0 -0 -0 -0 -0 -0 -0 -0 -0 -0 -0 -0 -0 -0 -0
-0 -0 -3 -2 -0 -0 -0 -0 -0 -0 -0 -0 -0 -0 -0 -0 -0 -0 -0 -0 -0 -0 -0 -0 -0 -0 -0 -0 -0 -0 -0 -0 -0 -0 -0 -0 -0 -0 -0 -0 -0 -0 -0 -0 -0 -0 -0
Wind_Speed
19 19 20 20 19 18 19 17 17 16 16 14 12 11 10 10 11 8 9 8 8 7 6 1 3 2 0 3 5 5 7 6 8 6 11 12 7 2 7 12 13 25 26 17 10 14 19
20 21 20 21 21 20 19 19 17 16 15 14 12 11 10 10 9 8 8 8 7 7 4 2 7 4 4 5 5 2 8 4 5 5 7 5 4 8 11 11 17 23 22 11 8 14 16
20 20 22 22 20 20 20 19 17 16 14 13 11 11 10 9 9 8 7 7 7 7 1 2 7 4 8 7 6 2 6 4 2 3 3 5 9 12 3 7 13 16 25 14 14 16 14
21 21 22 22 22 22 21 20 18 16 14 13 12 11 11 10 9 7 8 7 6 2 2 4 4 6 5 2 6 6 6 4 4 2 4 3 14 7 1 5 10 17 13 16 17 18 10
21 21 22 22 22 22 22 20 18 16 14 13 12 12 12 9 6 9 6 2 2 3 5 5 3 7 4 4 5 7 5 6 4 6 4 3 5 1 4 1 6 7 18 23 18 19 9
21 22 22 22 23 22 22 20 18 15 13 12 12 12 12 8 7 6 2 3 10 5 1 2 5 4 5 8 9 8 3 3 2 10 5 1 4 4 4 1 10 17 16 23 19 18 17
21 22 23 23 23 23 22 21 18 16 13 12 12 12 9 5 7 1 9 6 6 4 12 5 6 5 7 14 2 5 8 5 6 1 4 4 7 4 5 3 12 24 27 21 21 16 17
21 21 22 23 24 24 23 22 19 15 13 12 11 12 7 5 5 3 4 3 4 2 7 9 5 6 5 9 5 7 11 3 3 2 10 8 12 7 6 8 13 25 29 23 19 12 16
20 22 22 23 24 24 24 22 20 16 13 11 10 12 6 4 1 1 2 4 2 3 2 4 4 5 6 9 6 8 10 5 1 7 7 14 10 8 3 6 12 14 28 23 19 17 15
20 21 23 24 24 25 24 23 21 17 13 11 11 10 7 6 4 3 4 3 2 3 3 12 7 4 4 8 3 3 5 3 3 6 12 12 10 10 3 4 12 10 21 21 19 19 15
19 20 21 22 23 24 24 24 21 17 13 9 13 8 10 2 3 2 5 0 2 3 6 15 7 2 3 3 5 2 1 5 7 4 2 4 6 4 3 8 20 11 13 19 19 18 14
20 21 21 22 23 23 24 25 23 18 11 6 9 9 2 4 2 4 3 3 3 3 9 5 6 10 2 5 5 7 4 3 6 9 14 9 2 4 3 5 7 9 16 15 14 5 5
20 20 22 22 23 23 23 25 25 21 13 3 5 10 5 1 1 1 3 5 2 8 6 7 5 10 6 8 6 5 7 7 5 6 3 9 3 10 10 8 8 11 17 4 4 2 3
19 20 22 23 23 24 24 24 26 23 14 2 8 3 3 6 3 3 3 2 12 2 4 6 3 10 3 9 4 12 5 6 12 3 7 3 7 12 9 9 15 21 15 7 6 8 10
18 20 21 23 24 25 25 24 25 24 13 2 5 2 2 7 2 2 4 9 3 4 3 8 9 4 3 4 5 4 6 4 5 9 3 5 6 0 2 5 15 11 13 2 5 2 8
17 19 20 22 24 25 26 26 25 24 13 5 2 2 4 6 2 5 6 6 3 1 1 3 5 5 2 5 1 4 7 4 5 3 6 4 8 3 4 3 2 9 9 5 4 7 6
15 17 19 20 22 24 25 26 26 26 16 3 3 2 4 1 3 7 6 6 3 1 1 2 2 5 5 4 3 3 2 2 3 8 8 7 3 7 4 7 12 7 10 6 6 3 7
14 16 18 20 22 23 24 26 25 25 19 5 3 2 5 2 5 4 3 3 1 1 1 2 2 2 4 3 3 1 3 1 5 3 2 5 6 8 13 4 5 6 15 15 8 9 6
14 15 17 19 20 22 23 25 26 25 18 5 3 3 3 3 5 3 3 2 2 1 1 1 1 0 0 3 4 1 0 2 4 4 5 8 5 10 3 5 3 6 10 11 12 8 16
13 14 14 16 18 20 22 24 25 25 18 2 2 3 5 7 5 4 4 2 2 1 0 1 2 2 2 3 3 3 1 1 4 3 5 4 6 13 9 4 8 13 8 10 12 11 10
13 13 13 14 14 17 20 22 24 25 18 1 5 2 1 2 4 3 2 0 1 3 2 3 2 1 3 3 3 3 1 2 3 5 2 3 4 5 4 1 4 9 17 16 18 17 17
14 14 13 13 14 14 15 17 20 24 19 4 2 3 2 3 4 4 2 4 5 3 3 3 4 2 2 3 3 4 2 1 1 5 3 5 3 2 5 6 6 9 13 15 19 19 21
16 14 14 14 13 13 12 13 16 20 11 3 2 1 1 4 2 2 4 4 5 6 5 4 2 3 4 2 1 2 3 3 2 0 1 2 2 2 3 2 4 9 20 18 15 14 18
17 16 15 15 14 12 11 11 11 13 8 2 2 2 1 2 3 1 3 4 6 6 2 3 4 3 3 1 2 3 5 5 5 4 4 2 2 2 2 2 8 1 2 4 16 16 16
18 18 17 16 15 14 12 9 8 6 6 2 2 2 1 2 2 3 4 3 2 3 4 4 6 1 1 2 3 3 3 3 5 4 4 3 2 3 4 7 9 8 4 3 4 8 13
21 20 19 17 14 14 13 11 8 2 1 0 2 1 2 1 5 3 4 4 3 4 3 3 2 1 2 3 2 4 4 1 4 4 2 4 1 3 3 5 7 2 3 1 2 8 2
23 23 21 19 17 16 15 14 11 8 5 2 2 2 2 2 4 6 4 4 5 2 0 3 4 4 2 2 4 5 3 2 5 6 7 5 4 9 9 7 8 3 8 4 6 1 3
25 24 23 22 20 19 19 17 15 12 9 4 2 3 2 2 3 8 7 6 5 4 5 5 5 2 3 4 3 2 3 2 4 1 6 9 10 7 6 8 12 9 6 8 2 3 4
26 25 25 24 23 22 21 19 18 16 14 7 3 3 2 3 2 1 6 4 3 3 5 5 1 4 3 3 2 1 3 2 4 4 0 6 6 4 9 6 2 10 2 3 2 2 4
Wind_Direction
8 3 5 359 357 356 348 349 343 342 340 340 341 341 334 334 326 317 303 310 301 297 322 202 165 268 59 138 43 33 356 18 41 221 190 199 229 253 193 180 221 210 198 225 164 191 218
7 1 2 0 356 354 352 350 349 344 342 342 346 341 332 330 324 325 308 295 295 305 303 224 167 271 253 73 360 356 348 49 51 261 147 140 239 276 177 183 219 189 186 181 209 178 205
7 3 2 358 355 351 354 352 351 344 345 345 343 336 334 334 328 321 314 301 299 299 275 204 175 265 59 26 332 356 328 25 356 192 125 205 225 272 166 173 183 234 173 181 179 186 194
7 5 2 358 355 355 354 354 351 346 345 346 346 333 328 333 329 322 309 295 283 299 30 155 189 282 79 57 346 311 323 326 127 196 124 180 230 241 244 323 185 187 155 172 179 178 168
8 5 2 359 357 355 356 355 351 347 344 344 347 338 330 335 344 322 315 248 234 116 79 134 255 304 76 173 353 331 315 329 126 157 159 154 88 139 63 171 170 173 159 179 160 188 148
7 4 3 1 358 357 356 356 351 348 346 340 342 342 333 345 352 335 131 146 120 125 265 239 15 246 37 341 348 321 331 331 173 160 160 0 97 80 54 284 185 178 164 173 161 183 179
5 3 2 1 359 358 357 357 353 350 351 344 347 347 348 32 358 348 139 139 185 137 46 21 353 330 340 330 260 8 351 14 2 28 97 238 99 106 65 49 296 180 171 168 165 166 181
3 2 1 0 360 359 358 359 357 350 350 344 355 344 355 102 70 24 254 312 50 69 91 21 46 1 335 336 302 19 356 38 321 134 155 154 92 107 100 323 256 197 168 173 155 165 187
1 359 359 360 360 359 359 0 358 350 347 342 353 348 9 167 210 115 46 67 354 271 2 39 6 349 344 329 344 343 355 33 29 173 114 90 94 116 110 289 181 226 181 163 157 168 167
359 359 357 359 358 358 358 359 358 352 340 341 357 3 5 151 222 138 81 45 313 301 215 15 5 28 343 324 338 3 337 345 268 130 90 85 145 184 92 251 186 180 173 148 157 165 166
358 358 357 357 356 354 357 358 358 354 339 336 360 21 55 339 125 158 97 333 267 239 33 334 330 272 281 342 320 84 347 260 297 125 265 138 153 85 20 189 171 171 174 158 174 174 162
355 356 356 356 356 355 354 357 356 353 344 321 10 22 235 139 74 71 143 170 217 239 42 354 317 352 28 24 16 322 330 198 269 81 57 60 71 141 51 246 113 187 150 148 184 168 175
353 353 353 354 355 355 354 355 358 355 349 270 126 36 26 343 52 349 190 191 95 42 330 356 334 340 358 355 358 350 18 44 33 119 131 132 151 139 196 182 114 164 145 88 88 149 195
351 350 351 352 353 354 357 355 358 358 355 251 187 310 57 33 326 171 224 209 62 279 318 351 316 300 24 358 37 40 52 25 17 17 107 93 129 159 184 151 160 171 158 152 144 174 176
348 349 349 350 351 352 354 358 356 359 2 146 172 165 46 1 319 226 252 53 112 175 301 323 297 257 69 45 344 327 67 53 25 10 17 127 128 290 323 2 164 192 186 135 101 158 177
343 345 347 348 349 349 352 355 358 357 357 185 245 197 56 0 230 241 63 101 124 170 293 275 328 5 320 14 358 16 10 31 346 333 314 0 130 189 128 217 205 224 149 155 157 156 198
338 340 343 347 348 347 348 353 357 358 360 216 235 246 43 83 234 45 72 75 110 109 251 228 327 303 323 343 54 77 273 330 9 325 308 320 195 154 186 208 180 192 188 212 191 215 204
330 336 340 344 346 349 349 347 356 360 360 223 289 33 33 258 50 44 43 39 109 79 247 230 255 279 301 330 313 17 147 152 2 305 343 11 308 169 188 85 335 294 222 209 194 184 220
322 329 335 339 344 347 348 348 351 1 10 316 43 340 65 295 80 80 113 81 346 222 47 289 262 42 53 313 320 319 185 53 15 23 4 357 221 157 234 228 203 245 223 267 236 282 214
304 313 324 333 338 344 347 348 347 358 3 332 54 30 18 43 28 89 135 146 184 255 212 252 301 236 243 232 197 313 293 70 351 350 336 302 285 207 216 271 209 205 221 230 225 231 230
289 296 309 319 329 339 344 347 348 350 359 338 21 82 285 11 58 78 115 166 225 216 266 260 240 310 224 197 205 205 210 290 180 4 304 280 250 267 249 263 249 253 219 211 221 236 243
278 286 294 304 315 327 341 344 352 346 347 69 74 147 139 113 179 150 192 188 191 193 215 233 252 161 198 254 281 169 185 128 39 334 355 333 267 252 261 214 246 251 231 237 228 235 244
274 275 280 288 297 309 328 338 357 350 354 72 73 90 160 138 215 198 171 177 204 168 202 251 273 247 231 245 277 329 302 311 283 227 292 343 248 229 222 203 233 249 233 225 231 234 233
266 267 271 276 280 288 302 321 351 1 19 61 110 162 169 215 241 236 176 174 194 215 244 184 201 213 73 43 239 220 232 236 238 240 227 219 192 207 269 225 231 279 59 302 234 232 221
255 256 255 257 266 273 281 297 320 3 10 72 122 238 191 227 208 186 185 197 196 212 240 232 194 123 79 212 263 258 191 210 197 179 203 252 241 198 228 220 322 281 214 204 192 267 231
244 246 248 247 247 254 259 264 269 275 80 82 127 269 255 162 220 105 158 178 218 205 197 217 121 139 220 255 229 245 239 104 180 173 172 164 12 266 161 226 235 73 155 126 140 257 176
248 246 242 241 237 236 243 244 243 231 203 230 144 220 250 215 186 161 191 177 153 144 303 140 163 163 262 216 237 232 228 356 216 199 173 177 196 220 213 243 276 140 147 147 173 228 106
245 243 241 239 237 234 230 231 229 228 200 207 93 181 286 254 220 197 178 156 145 205 191 141 148 185 168 214 249 239 260 169 254 148 189 184 176 196 193 219 260 142 113 201 92 101 127
245 244 241 237 233 231 228 222 219 217 202 191 236 169 178 227 307 291 246 257 244 187 133 178 11 154 172 198 222 293 241 186 278 259 327 235 229 196 209 215 83 194 6 125 175 147 174